Terug naar catalogus

STARLINK-31410

ActiefCommunicatieVLEO
NORAD 59179·PAYLOAD·🇺🇸 United States

Gelanceerd Mar 10, 2024 vanaf Cape Canaveral Space Force Station

Loading…

Volgende Passages (komende 24 uur)

TLE

VersSource: CelesTrak SupGP

Epoch: Sep 15, 2026, 03:21 UTC

1 59179C 24045B   26258.14006944  .00012249  00000+0  44357-3 0  2588
2 59179  42.9998 102.7695 0001476 276.8140  87.6248 15.27578304    18

Volg STARLINK-31410 in realtime met AllMySat

Download on the App Store